Powrót do katalogu

STARLINK-1308

AktywnyŁącznośćVLEO
NORAD 45419·PAYLOAD·🇺🇸 United States

Wystrzelony Mar 18, 2020 z Cape Canaveral Space Force Station

Loading…

Następne Przeloty (najbliższe 24 godziny)

TLE

ŚwieżeSource: CelesTrak SupGP

Epoka: Sep 14, 2026, 20:34 UTC

1 45419C 20019BM  26257.85743056  .00043407  00000+0  27049-3 0  2574
2 45419  53.0410 303.6437 0006970   7.4377 118.3270 15.76174945    16

Śledź STARLINK-1308 w czasie rzeczywistym z AllMySat

Download on the App Store